ORBCOMM FM22 [-]

Last updated on July 6, 2021, 3:36 p.m. UTC

1 25476U 98053B   21187.07416490  .00000039  00000-0  64715-4 0  9998
2 25476  45.0078 227.2667 0004409 238.5799 121.4616 14.33218242190496
UTC
Height (km)
Latitude
Longitude
Inclination
Orbital Period
UTC large
Height (km)
Speed (km/s)
/
Latitude / Longitude
Inclination (degrees)
Orbital Period (minutes)
Azimuth
Elevation
Range (km)
Doppler Factor
iOS Compass Heading
iOS Angle